,,,PA_Meas_PMT16A,,PR_Meas_QMR101_102,,RH_Meas_QMH101,,SR_Meas_QMS101,,TA_Meas_QMH101,,GenWind,,GenWind,
date,time,status,PA,status,PR,status,RH,status,SR,status,TA,status,DirAvg,status,SpdAvg,
2011-11-16, 00:00:05,VALID,1003.75,VALID,0,VALID,88.8078,VALID,0,VALID,25.006,VALID,7,VALID,0,
2011-11-16, 00:01:05,VALID,1003.76,VALID,0,VALID,88.9527,VALID,0,VALID,25.0079,VALID,7,VALID,0,
2011-11-16, 00:02:05,VALID,1003.76,VALID,0,VALID,89.1892,VALID,0,VALID,24.9671,VALID,7,VALID,0,
2011-11-16, 00:03:04,VALID,1003.77,VALID,0,VALID,89.1435,VALID,0,VALID,24.9671,VALID,7,VALID,0.0195313,
2011-11-16, 00:04:04,VALID,1003.75,VALID,0,VALID,89.1206,VALID,0,VALID,24.9282,VALID,7,VALID,0,
2011-11-16, 00:05:04,VALID,1003.72,VALID,0,VALID,89.2274,VALID,0,VALID,24.9495,VALID,7,VALID,0.362891,
2011-11-16, 00:06:04,VALID,1003.72,VALID,0,VALID,88.9833,VALID,0,VALID,24.9866,VALID,7,VALID,0.227734,
2011-11-16, 00:07:04,VALID,1003.7,VALID,0,VALID,88.6476,VALID,0,VALID,24.9866,VALID,7,VALID,0,
2011-11-16, 00:08:04,VALID,1003.7,VALID,0,VALID,88.6857,VALID,0,VALID,25.006,VALID,7,VALID,0,
2011-11-16, 00:09:04,VALID,1003.69,VALID,0,VALID,88.8078,VALID,0.0815089,VALID,25.0255,VALID,7,VALID,0,
2011-11-16, 00:10:04,VALID,1003.67,VALID,0,VALID,88.9756,VALID,0,VALID,25.0255,VALID,7,VALID,0,
2011-11-16, 00:11:04,VALID,1003.69,VALID,0,VALID,88.6628,VALID,0.0815089,VALID,24.9847,VALID,7,VALID,0,
2011-11-16, 00:12:04,VALID,1003.7,VALID,0,VALID,88.2661,VALID,0.0815089,VALID,25.0041,VALID,7,VALID,0,
2011-11-16, 00:13:04,VALID,1003.69,VALID,0,VALID,88.1136,VALID,0.0815089,VALID,25.0663,VALID,7,VALID,0,
2011-11-16, 00:14:04,VALID,1003.7,VALID,0,VALID,87.8466,VALID,0,VALID,25.0839,VALID,7,VALID,0,
2011-11-16, 00:15:04,VALID,1003.7,VALID,0,VALID,87.9076,VALID,0,VALID,25.1229,VALID,7,VALID,0,
2011-11-16, 00:16:04,VALID,1003.65,VALID,0,VALID,87.8237,VALID,0,VALID,25.121,VALID,7,VALID,0,
2011-11-16, 00:17:04,VALID,1003.63,VALID,0,VALID,88.0144,VALID,0.0815089,VALID,25.1423,VALID,7,VALID,0,
2011-11-16, 00:18:04,VALID,1003.62,VALID,0,VALID,88.0449,VALID,0,VALID,25.1015,VALID,7,VALID,0,
2011-11-16, 00:19:04,VALID,1003.59,VALID,0,VALID,88.2204,VALID,0,VALID,25.1229,VALID,7,VALID,0,
2011-11-16, 00:20:04,VALID,1003.57,VALID,0,VALID,88.2967,VALID,0,VALID,25.1229,VALID,7,VALID,0,
2011-11-16, 00:21:04,VALID,1003.57,VALID,0,VALID,88.434,VALID,0,VALID,25.1229,VALID,7,VALID,0.123047,
2011-11-16, 00:22:04,VALID,1003.55,VALID,0,VALID,88.6018,VALID,0,VALID,25.1034,VALID,7,VALID,0,
2011-11-16, 00:23:04,VALID,1003.52,VALID,0,VALID,88.6552,VALID,0,VALID,25.1229,VALID,7,VALID,0.196094,
2011-11-16, 00:24:04,VALID,1003.49,VALID,0,VALID,88.0983,VALID,0,VALID,25.2397,VALID,7,VALID,0.315234,
2011-11-16, 00:25:04,VALID,1003.46,VALID,0,VALID,87.6787,VALID,0.0815089,VALID,25.3176,VALID,1,VALID,0.427734,
2011-11-16, 00:26:04,VALID,1003.46,VALID,0,VALID,87.427,VALID,0,VALID,25.3546,VALID,4,VALID,0.563281,
2011-11-16, 00:27:04,VALID,1003.43,VALID,0,VALID,87.16,VALID,0,VALID,25.4539,VALID,4,VALID,0.456641,
2011-11-16, 00:28:04,VALID,1003.42,VALID,0,VALID,86.9616,VALID,0,VALID,25.4734,VALID,3,VALID,0.475,
2011-11-16, 00:29:04,VALID,1003.41,VALID,0,VALID,86.8472,VALID,0,VALID,25.4928,VALID,3,VALID,0.229297,
2011-11-16, 00:30:04,VALID,1003.38,VALID,0,VALID,86.8929,VALID,0,VALID,25.5123,VALID,3,VALID,0.15625,
2011-11-16, 00:31:04,VALID,1003.36,VALID,0,VALID,86.7251,VALID,0,VALID,25.5513,VALID,19,VALID,0.621094,
2011-11-16, 00:32:04,VALID,1003.35,VALID,0,VALID,86.4505,VALID,0.0815089,VALID,25.6272,VALID,36,VALID,0.442969,
2011-11-16, 00:33:04,VALID,1003.33,VALID,0,VALID,85.7715,VALID,0.0815089,VALID,25.746,VALID,28,VALID,1.17539,
2011-11-16, 00:34:04,VALID,1003.34,VALID,0,VALID,85.1459,VALID,0.0815089,VALID,25.8239,VALID,20,VALID,0.483984,
2011-11-16, 00:35:04,VALID,1003.35,VALID,0,VALID,84.6729,VALID,0,VALID,25.9018,VALID,18,VALID,1.19922,
2011-11-16, 00:36:04,VALID,1003.31,VALID,0,VALID,83.8948,VALID,0,VALID,26.0556,VALID,353,VALID,0.841406,
2011-11-16, 00:37:04,VALID,1003.3,VALID,0,VALID,83.6354,VALID,0.0815089,VALID,26.1141,VALID,14,VALID,0.483984,
2011-11-16, 00:38:04,VALID,1003.31,VALID,0,VALID,83.3608,VALID,0.0815089,VALID,26.153,VALID,12,VALID,1.27422,
2011-11-16, 00:39:04,VALID,1003.28,VALID,0,VALID,83.2769,VALID,0,VALID,26.192,VALID,18,VALID,0.360547,
2011-11-16, 00:40:04,VALID,1003.25,VALID,0,VALID,82.903,VALID,0,VALID,26.2329,VALID,342,VALID,1.31211,
2011-11-16, 00:41:04,VALID,1003.23,VALID,0,VALID,82.7123,VALID,0,VALID,26.2894,VALID,14,VALID,0.449219,
2011-11-16, 00:42:04,VALID,1003.21,VALID,0,VALID,82.6208,VALID,0,VALID,26.3498,VALID,37,VALID,0.887109,
2011-11-16, 00:43:04,VALID,1003.15,VALID,0,VALID,82.5674,VALID,0.0815089,VALID,26.3283,VALID,49,VALID,0.267969,
2011-11-16, 00:44:04,VALID,1003.15,VALID,0,VALID,82.6437,VALID,0,VALID,26.3283,VALID,49,VALID,0,
2011-11-16, 00:45:04,VALID,1003.14,VALID,0,VALID,82.8115,VALID,0,VALID,26.2894,VALID,49,VALID,0.00585938,
2011-11-16, 00:46:04,VALID,1003.13,VALID,0,VALID,83.0098,VALID,0,VALID,26.2739,VALID,25,VALID,0.438281,
2011-11-16, 00:47:04,VALID,1003.13,VALID,0,VALID,83.0251,VALID,0,VALID,26.2349,VALID,1,VALID,0.872656,
2011-11-16, 00:48:04,VALID,1003.15,VALID,0,VALID,83.0327,VALID,0,VALID,26.2544,VALID,360,VALID,0.00195313,
2011-11-16, 00:49:04,VALID,1003.13,VALID,0,VALID,83.4447,VALID,0,VALID,26.194,VALID,360,VALID,0,
2011-11-16, 00:50:04,VALID,1003.13,VALID,0,VALID,83.46,VALID,0,VALID,26.0206,VALID,42,VALID,0.540625,
2011-11-16, 00:51:04,VALID,1003.12,VALID,0,VALID,84.1389,VALID,0,VALID,25.8044,VALID,43,VALID,0.496875,
2011-11-16, 00:52:04,VALID,1003.11,VALID,0,VALID,84.9552,VALID,0,VALID,25.6486,VALID,43,VALID,0.176953,
2011-11-16, 00:53:04,VALID,1003.09,VALID,0,VALID,85.5808,VALID,0,VALID,25.5318,VALID,43,VALID,0,
2011-11-16, 00:54:04,VALID,1003.04,VALID,0,VALID,85.9851,VALID,0,VALID,25.4558,VALID,43,VALID,0,
2011-11-16, 00:55:04,VALID,1003.04,VALID,0,VALID,86.6183,VALID,0,VALID,25.3584,VALID,43,VALID,0.281641,
2011-11-16, 00:56:04,VALID,1003.04,VALID,0,VALID,86.9311,VALID,0,VALID,25.2202,VALID,43,VALID,0.2625,
2011-11-16, 00:57:04,VALID,1003.02,VALID,0,VALID,87.1676,VALID,0,VALID,25.1637,VALID,43,VALID,0,
2011-11-16, 00:58:04,VALID,1002.99,VALID,0,VALID,87.6253,VALID,0,VALID,25.1248,VALID,43,VALID,0,
2011-11-16, 00:59:04,VALID,1002.98,VALID,0,VALID,87.8847,VALID,0,VALID,25.0663,VALID,43,VALID,0,
2011-11-16, 01:00:04,VALID,1002.96,VALID,0,VALID,88.2967,VALID,0,VALID,25.0274,VALID,43,VALID,0,
2011-11-16, 01:01:04,VALID,1002.93,VALID,0,VALID,88.3119,VALID,0,VALID,24.9866,VALID,43,VALID,0,
2011-11-16, 01:02:04,VALID,1002.9,VALID,0,VALID,88.5637,VALID,0,VALID,24.9476,VALID,43,VALID,0.203906,
2011-11-16, 01:03:04,VALID,1002.88,VALID,0,VALID,88.8002,VALID,0,VALID,24.93,VALID,43,VALID,0,
2011-11-16, 01:04:04,VALID,1002.85,VALID,0,VALID,88.8154,VALID,0,VALID,24.8892,VALID,43,VALID,0,
2011-11-16, 01:05:04,VALID,1002.83,VALID,0,VALID,88.8917,VALID,0,VALID,24.8308,VALID,43,VALID,0,
2011-11-16, 01:06:04,VALID,1002.86,VALID,0,VALID,89.1587,VALID,0,VALID,24.8113,VALID,43,VALID,0,
2011-11-16, 01:07:04,VALID,1002.85,VALID,0,VALID,89.296,VALID,0,VALID,24.8113,VALID,43,VALID,0,
2011-11-16, 01:08:04,VALID,1002.86,VALID,0,VALID,89.7996,VALID,0,VALID,24.8113,VALID,43,VALID,0.339063,
2011-11-16, 01:09:04,VALID,1002.9,VALID,0,VALID,89.8453,VALID,0,VALID,24.7919,VALID,43,VALID,0.210156,
2011-11-16, 01:10:04,VALID,1002.9,VALID,0,VALID,90.0894,VALID,0,VALID,24.7724,VALID,43,VALID,0.182422,
2011-11-16, 01:11:04,VALID,1002.93,VALID,0,VALID,90.2268,VALID,0,VALID,24.7724,VALID,43,VALID,0.193359,
2011-11-16, 01:12:04,VALID,1002.93,VALID,0,VALID,90.4251,VALID,0,VALID,24.7529,VALID,43,VALID,0.567578,
2011-11-16, 01:13:04,VALID,1002.95,VALID,0,VALID,90.5777,VALID,0,VALID,24.7335,VALID,42,VALID,0.288672,
2011-11-16, 01:14:04,VALID,1002.95,VALID,0,VALID,90.6692,VALID,0,VALID,24.714,VALID,42,VALID,0.301562,
2011-11-16, 01:15:04,VALID,1002.92,VALID,0,VALID,90.7455,VALID,0,VALID,24.7159,VALID,42,VALID,0,
2011-11-16, 01:16:04,VALID,1002.89,VALID,0,VALID,90.8218,VALID,0,VALID,24.6732,VALID,42,VALID,0,
2011-11-16, 01:17:04,VALID,1002.82,VALID,0,VALID,91.0736,VALID,0,VALID,24.6945,VALID,42,VALID,0,
2011-11-16, 01:18:04,VALID,1002.77,VALID,0,VALID,91.0812,VALID,0,VALID,24.6556,VALID,42,VALID,0,
2011-11-16, 01:19:04,VALID,1002.73,VALID,0,VALID,91.1041,VALID,0,VALID,24.6556,VALID,42,VALID,0,
2011-11-16, 01:20:04,VALID,1002.65,VALID,0,VALID,91.1346,VALID,0,VALID,24.6556,VALID,42,VALID,0,
2011-11-16, 01:21:04,VALID,1002.6,VALID,0,VALID,91.3024,VALID,0,VALID,24.6361,VALID,42,VALID,0,
2011-11-16, 01:22:04,VALID,1002.58,VALID,0,VALID,91.4169,VALID,0,VALID,24.6361,VALID,42,VALID,0,
2011-11-16, 01:23:04,VALID,1002.58,VALID,0,VALID,91.3406,VALID,0,VALID,24.6166,VALID,42,VALID,0,
2011-11-16, 01:24:04,VALID,1002.61,VALID,0,VALID,91.4092,VALID,0,VALID,24.638,VALID,42,VALID,0,
2011-11-16, 01:25:04,VALID,1002.59,VALID,0,VALID,91.3406,VALID,0,VALID,24.638,VALID,42,VALID,0.472656,
2011-11-16, 01:26:04,VALID,1002.61,VALID,0,VALID,91.2109,VALID,0,VALID,24.5972,VALID,42,VALID,0.431641,
2011-11-16, 01:27:04,VALID,1002.61,VALID,0,VALID,91.394,VALID,0,VALID,24.5777,VALID,36,VALID,0.553125,
2011-11-16, 01:28:04,VALID,1002.55,VALID,0,VALID,91.5389,VALID,0,VALID,24.5388,VALID,17,VALID,0.489844,
2011-11-16, 01:29:04,VALID,1002.53,VALID,0,VALID,91.867,VALID,0,VALID,24.5388,VALID,13,VALID,0.0574219,
2011-11-16, 01:30:04,VALID,1002.51,VALID,0,VALID,91.8746,VALID,0,VALID,24.5582,VALID,13,VALID,0.225391,
2011-11-16, 01:31:04,VALID,1002.49,VALID,0,VALID,91.6305,VALID,0,VALID,24.5564,VALID,13,VALID,0.0078125,
2011-11-16, 01:32:04,VALID,1002.47,VALID,0,VALID,91.5695,VALID,0,VALID,24.5972,VALID,13,VALID,0.00429688,
2011-11-16, 01:33:04,VALID,1002.48,VALID,0,VALID,91.5084,VALID,0,VALID,24.5972,VALID,13,VALID,0.0863281,
2011-11-16, 01:34:04,VALID,1002.5,VALID,0,VALID,91.6076,VALID,0.0815089,VALID,24.5972,VALID,13,VALID,0,
2011-11-16, 01:35:04,VALID,1002.48,VALID,0,VALID,91.6457,VALID,0.0815089,VALID,24.5758,VALID,13,VALID,0.00429688,
2011-11-16, 01:36:04,VALID,1002.51,VALID,0,VALID,91.4932,VALID,0,VALID,24.5582,VALID,13,VALID,0,
2011-11-16, 01:37:04,VALID,1002.48,VALID,0,VALID,91.5313,VALID,0,VALID,24.5388,VALID,13,VALID,0,
2011-11-16, 01:38:04,VALID,1002.48,VALID,0,VALID,91.6152,VALID,0,VALID,24.4998,VALID,13,VALID,0,
2011-11-16, 01:39:04,VALID,1002.49,VALID,0,VALID,91.7525,VALID,0,VALID,24.4396,VALID,13,VALID,0.509766,
2011-11-16, 01:40:04,VALID,1002.48,VALID,0,VALID,91.989,VALID,0,VALID,24.4414,VALID,13,VALID,0.64375,
2011-11-16, 01:41:04,VALID,1002.5,VALID,0,VALID,92.2103,VALID,0,VALID,24.422,VALID,13,VALID,0.605469,
2011-11-16, 01:42:04,VALID,1002.48,VALID,0,VALID,92.5002,VALID,0,VALID,24.4025,VALID,13,VALID,0.719531,
2011-11-16, 01:43:04,VALID,1002.48,VALID,0,VALID,92.6451,VALID,0.0815089,VALID,24.3812,VALID,13,VALID,0.682422,
2011-11-16, 01:44:04,VALID,1002.48,VALID,0,VALID,92.668,VALID,0,VALID,24.3228,VALID,11,VALID,0.651172,
2011-11-16, 01:45:04,VALID,1002.47,VALID,0,VALID,92.7443,VALID,0,VALID,24.3228,VALID,9,VALID,0.725391,
2011-11-16, 01:46:04,VALID,1002.46,VALID,0,VALID,92.7748,VALID,0,VALID,24.3265,VALID,8,VALID,0.482031,
2011-11-16, 01:47:04,VALID,1002.43,VALID,0,VALID,92.9121,VALID,0,VALID,24.2875,VALID,8,VALID,0.461328,
2011-11-16, 01:48:04,VALID,1002.44,VALID,0,VALID,92.9045,VALID,0,VALID,24.2875,VALID,7,VALID,0.548047,
2011-11-16, 01:49:04,VALID,1002.4,VALID,0,VALID,92.9655,VALID,0,VALID,24.2468,VALID,7,VALID,0.44375,
2011-11-16, 01:50:04,VALID,1002.44,VALID,0,VALID,93.0418,VALID,0,VALID,24.2681,VALID,7,VALID,0.429688,
2011-11-16, 01:51:04,VALID,1002.41,VALID,0,VALID,93.0266,VALID,0,VALID,24.2468,VALID,7,VALID,0.551953,
2011-11-16, 01:52:04,VALID,1002.38,VALID,0,VALID,93.1486,VALID,0,VALID,24.2681,VALID,7,VALID,0.470313,
2011-11-16, 01:53:04,VALID,1002.4,VALID,0,VALID,93.2325,VALID,0,VALID,24.2662,VALID,7,VALID,0.495703,
2011-11-16, 01:54:04,VALID,1002.37,VALID,0,VALID,93.2936,VALID,0,VALID,24.307,VALID,6,VALID,0.644922,
2011-11-16, 01:55:04,VALID,1002.37,VALID,0,VALID,93.2097,VALID,0,VALID,24.3052,VALID,360,VALID,0.677734,
2011-11-16, 01:56:04,VALID,1002.35,VALID,0,VALID,93.1944,VALID,0,VALID,24.2839,VALID,360,VALID,0.571094,
2011-11-16, 01:57:04,VALID,1002.35,VALID,0,VALID,93.1639,VALID,0,VALID,24.3441,VALID,359,VALID,0.672266,
2011-11-16, 01:58:04,VALID,1002.38,VALID,0,VALID,93.0723,VALID,0,VALID,24.3654,VALID,359,VALID,0.576172,
2011-11-16, 01:59:04,VALID,1002.4,VALID,0,VALID,93.2325,VALID,0,VALID,24.3636,VALID,354,VALID,0.507422,
2011-11-16, 02:00:04,VALID,1002.42,VALID,0,VALID,93.6369,VALID,0,VALID,24.4433,VALID,6,VALID,0.900781,
2011-11-16, 02:01:04,VALID,1002.42,VALID,0,VALID,93.6674,VALID,0,VALID,24.6166,VALID,349,VALID,0.969531,
2011-11-16, 02:02:04,VALID,1002.42,VALID,0,VALID,92.9503,VALID,0,VALID,24.7529,VALID,351,VALID,0.760547,
2011-11-16, 02:03:04,VALID,1002.42,VALID,0,VALID,92.4697,VALID,0.0815089,VALID,24.8892,VALID,355,VALID,0.989062,
2011-11-16, 02:04:04,VALID,1002.47,VALID,0,VALID,91.8212,VALID,0,VALID,25.0644,VALID,5,VALID,0.76875,
2011-11-16, 02:05:04,VALID,1002.5,VALID,0,VALID,90.8752,VALID,0.0815089,VALID,25.2007,VALID,5,VALID,0.715234,
2011-11-16, 02:06:04,VALID,1002.51,VALID,0,VALID,90.6006,VALID,0.0815089,VALID,25.2981,VALID,17,VALID,0.733203,
2011-11-16, 02:07:04,VALID,1002.54,VALID,0,VALID,89.914,VALID,0.0815089,VALID,25.4714,VALID,10,VALID,0.681641,
2011-11-16, 02:08:04,VALID,1002.56,VALID,0,VALID,88.9451,VALID,0,VALID,25.5902,VALID,2,VALID,0.582422,
2011-11-16, 02:09:04,VALID,1002.55,VALID,0,VALID,88.8002,VALID,0,VALID,25.6467,VALID,349,VALID,1.60508,
2011-11-16, 02:10:04,VALID,1002.54,VALID,0,VALID,88.1059,VALID,0.0815089,VALID,25.785,VALID,8,VALID,0.78125,
2011-11-16, 02:11:04,VALID,1002.55,VALID,0,VALID,87.6635,VALID,0,VALID,25.8629,VALID,25,VALID,0.791406,
2011-11-16, 02:12:04,VALID,1002.54,VALID,0,VALID,87.4575,VALID,0,VALID,25.9018,VALID,20,VALID,0.46875,
2011-11-16, 02:13:04,VALID,1002.5,VALID,0,VALID,87.4499,VALID,0,VALID,25.8823,VALID,9,VALID,0.762891,
2011-11-16, 02:14:04,VALID,1002.5,VALID,0,VALID,87.4499,VALID,0,VALID,25.9213,VALID,16,VALID,0.889844,
2011-11-16, 02:15:04,VALID,1002.47,VALID,0,VALID,87.3812,VALID,0,VALID,25.9213,VALID,16,VALID,0.632422,
2011-11-16, 02:16:04,VALID,1002.45,VALID,0,VALID,87.4804,VALID,0.0815089,VALID,25.9213,VALID,16,VALID,0.594922,
2011-11-16, 02:17:04,VALID,1002.42,VALID,0,VALID,87.4499,VALID,0.0815089,VALID,25.9408,VALID,16,VALID,0.624609,
2011-11-16, 02:18:04,VALID,1002.4,VALID,0,VALID,87.3736,VALID,0,VALID,25.9193,VALID,17,VALID,0.893359,
2011-11-16, 02:19:04,VALID,1002.37,VALID,0,VALID,87.3049,VALID,0.0815089,VALID,25.8998,VALID,41,VALID,0.775781,
2011-11-16, 02:20:04,VALID,1002.36,VALID,0,VALID,87.2057,VALID,0.0815089,VALID,25.9408,VALID,29,VALID,0.778906,
2011-11-16, 02:21:04,VALID,1002.36,VALID,0,VALID,87.1523,VALID,0.0815089,VALID,25.9602,VALID,19,VALID,0.409766,
2011-11-16, 02:22:04,VALID,1002.35,VALID,0,VALID,87.221,VALID,0,VALID,25.9797,VALID,9,VALID,0.644141,
2011-11-16, 02:23:04,VALID,1002.36,VALID,0,VALID,87.1294,VALID,0.0815089,VALID,25.9602,VALID,22,VALID,0.70625,
2011-11-16, 02:24:04,VALID,1002.35,VALID,0,VALID,87.1752,VALID,0.0815089,VALID,25.9388,VALID,5,VALID,0.449219,
2011-11-16, 02:25:04,VALID,1002.37,VALID,0,VALID,87.2439,VALID,0.0815089,VALID,25.9583,VALID,15,VALID,0.564062,
2011-11-16, 02:26:04,VALID,1002.34,VALID,0,VALID,87.2591,VALID,0.0815089,VALID,25.9797,VALID,14,VALID,0.745703,
2011-11-16, 02:27:04,VALID,1002.34,VALID,0,VALID,87.2362,VALID,0,VALID,25.9992,VALID,12,VALID,0.391797,
2011-11-16, 02:28:04,VALID,1002.3,VALID,0,VALID,87.3659,VALID,0,VALID,25.9583,VALID,10,VALID,0.336328,
2011-11-16, 02:29:04,VALID,1002.29,VALID,0,VALID,87.2591,VALID,0.0815089,VALID,26.0187,VALID,5,VALID,0.965625,
2011-11-16, 02:30:04,VALID,1002.25,VALID,0,VALID,87.1447,VALID,0,VALID,26.0576,VALID,21,VALID,0.892578,
2011-11-16, 02:31:04,VALID,1002.22,VALID,0,VALID,86.9006,VALID,0.0815089,VALID,26.116,VALID,358,VALID,0.599219,
2011-11-16, 02:32:04,VALID,1002.17,VALID,0,VALID,86.8319,VALID,0.0815089,VALID,26.1355,VALID,12,VALID,0.958594,
2011-11-16, 02:33:04,VALID,1002.15,VALID,0,VALID,86.7251,VALID,0.0815089,VALID,26.1745,VALID,12,VALID,0.493359,
2011-11-16, 02:34:04,VALID,1002.11,VALID,0,VALID,86.5954,VALID,0,VALID,26.192,VALID,17,VALID,0.652734,
2011-11-16, 02:35:04,VALID,1002.11,VALID,0,VALID,86.7251,VALID,0.0815089,VALID,26.192,VALID,8,VALID,0.53125,
2011-11-16, 02:36:04,VALID,1002.1,VALID,0,VALID,86.4581,VALID,0.0815089,VALID,26.2134,VALID,8,VALID,0.315234,
2011-11-16, 02:37:04,VALID,1002.11,VALID,0,VALID,86.5115,VALID,0,VALID,26.2154,VALID,8,VALID,0.319531,
2011-11-16, 02:38:04,VALID,1002.11,VALID,0,VALID,86.6946,VALID,0.0815089,VALID,26.153,VALID,358,VALID,0.424219,
2011-11-16, 02:39:04,VALID,1002.12,VALID,0,VALID,86.8014,VALID,0.0815089,VALID,26.1725,VALID,358,VALID,0.297266,
2011-11-16, 02:40:04,VALID,1002.14,VALID,0,VALID,86.8701,VALID,0,VALID,26.194,VALID,26,VALID,0.555859,
2011-11-16, 02:41:04,VALID,1002.16,VALID,0,VALID,86.8243,VALID,0.0815089,VALID,26.194,VALID,27,VALID,0.617969,
2011-11-16, 02:42:04,VALID,1002.15,VALID,0,VALID,86.8777,VALID,0,VALID,26.2134,VALID,15,VALID,0.673437,
2011-11-16, 02:43:04,VALID,1002.16,VALID,0,VALID,86.8014,VALID,0.0815089,VALID,26.194,VALID,19,VALID,1.02148,
2011-11-16, 02:44:04,VALID,1002.12,VALID,0,VALID,86.7709,VALID,0,VALID,26.2349,VALID,30,VALID,0.633984,
2011-11-16, 02:45:04,VALID,1002.12,VALID,0,VALID,86.6641,VALID,0,VALID,26.194,VALID,30,VALID,0.643359,
2011-11-16, 02:46:04,VALID,1002.1,VALID,0,VALID,86.6183,VALID,0,VALID,26.192,VALID,21,VALID,0.797266,
2011-11-16, 02:47:04,VALID,1002.06,VALID,0,VALID,86.4657,VALID,0,VALID,26.2134,VALID,23,VALID,0.957812,
2011-11-16, 02:48:04,VALID,1002.04,VALID,0,VALID,86.4276,VALID,0.0815089,VALID,26.2329,VALID,22,VALID,0.729688,
2011-11-16, 02:49:04,VALID,1002.01,VALID,0,VALID,86.2826,VALID,0,VALID,26.2933,VALID,12,VALID,1.2918,
2011-11-16, 02:50:04,VALID,1002.01,VALID,0,VALID,86.1377,VALID,0,VALID,26.3108,VALID,13,VALID,1.27461,
2011-11-16, 02:51:04,VALID,1002,VALID,0,VALID,86.0995,VALID,0,VALID,26.3303,VALID,17,VALID,0.695313,
2011-11-16, 02:52:04,VALID,1001.96,VALID,0,VALID,86.2292,VALID,0.0815089,VALID,26.3303,VALID,14,VALID,0.704687,
2011-11-16, 02:53:04,VALID,1001.92,VALID,0,VALID,86.3589,VALID,0.0815089,VALID,26.2894,VALID,9,VALID,0.555859,
2011-11-16, 02:54:04,VALID,1001.9,VALID,0,VALID,86.5115,VALID,0,VALID,26.3108,VALID,9,VALID,0.689453,
2011-11-16, 02:55:04,VALID,1001.86,VALID,0,VALID,86.5725,VALID,0,VALID,26.2913,VALID,8,VALID,0.51875,
2011-11-16, 02:56:04,VALID,1001.82,VALID,0,VALID,86.6259,VALID,0.0815089,VALID,26.2699,VALID,16,VALID,0.632422,
2011-11-16, 02:57:04,VALID,1001.77,VALID,0,VALID,86.6031,VALID,0,VALID,26.2913,VALID,15,VALID,0.632422,
2011-11-16, 02:58:04,VALID,1001.77,VALID,0,VALID,86.5191,VALID,0.0815089,VALID,26.3108,VALID,21,VALID,0.644531,
2011-11-16, 02:59:04,VALID,1001.72,VALID,0,VALID,86.6412,VALID,0.0815089,VALID,26.3283,VALID,20,VALID,0.0917969,
2011-11-16, 03:00:04,VALID,1001.72,VALID,0,VALID,86.6717,VALID,0.0815089,VALID,26.3498,VALID,20,VALID,0.185156,
2011-11-16, 03:01:04,VALID,1001.7,VALID,0,VALID,86.7556,VALID,0.0815089,VALID,26.3303,VALID,17,VALID,0,
2011-11-16, 03:02:04,VALID,1001.71,VALID,0,VALID,86.954,VALID,0.0815089,VALID,26.3088,VALID,17,VALID,0.0699219,
2011-11-16, 03:03:04,VALID,1001.69,VALID,0,VALID,87.1371,VALID,0,VALID,26.2699,VALID,17,VALID,0,
2011-11-16, 03:04:04,VALID,1001.67,VALID,0,VALID,87.2591,VALID,0.0815089,VALID,26.2524,VALID,17,VALID,0,
2011-11-16, 03:05:04,VALID,1001.68,VALID,0,VALID,87.4117,VALID,0.0815089,VALID,26.192,VALID,17,VALID,0,
2011-11-16, 03:06:04,VALID,1001.67,VALID,0,VALID,87.5261,VALID,0.0815089,VALID,26.1765,VALID,17,VALID,0,
2011-11-16, 03:07:04,VALID,1001.65,VALID,0,VALID,87.7474,VALID,0.0815089,VALID,26.116,VALID,17,VALID,0,
2011-11-16, 03:08:04,VALID,1001.67,VALID,0,VALID,88.0373,VALID,0.0815089,VALID,26.0771,VALID,17,VALID,0,
2011-11-16, 03:09:04,VALID,1001.7,VALID,0,VALID,88.3577,VALID,0,VALID,25.9992,VALID,17,VALID,0,
2011-11-16, 03:10:04,VALID,1001.67,VALID,0,VALID,88.495,VALID,0,VALID,25.9622,VALID,17,VALID,0,
2011-11-16, 03:11:04,VALID,1001.68,VALID,0,VALID,89.029,VALID,0.0815089,VALID,25.8823,VALID,341,VALID,0.752344,
2011-11-16, 03:12:04,VALID,1001.71,VALID,0,VALID,88.9756,VALID,0.0815089,VALID,25.8823,VALID,68,VALID,0.424219,
2011-11-16, 03:13:04,VALID,1001.71,VALID,0,VALID,89.113,VALID,0,VALID,25.8609,VALID,68,VALID,0.0722656,
2011-11-16, 03:14:04,VALID,1001.68,VALID,0,VALID,89.0977,VALID,0,VALID,25.8823,VALID,67,VALID,0.195703,
2011-11-16, 03:15:04,VALID,1001.69,VALID,0,VALID,88.9527,VALID,0,VALID,25.9018,VALID,21,VALID,0.899219,
2011-11-16, 03:16:04,VALID,1001.7,VALID,0,VALID,88.289,VALID,0,VALID,25.9817,VALID,20,VALID,1.23906,
2011-11-16, 03:17:04,VALID,1001.7,VALID,0,VALID,87.7169,VALID,0,VALID,26.0791,VALID,28,VALID,0.803125,
2011-11-16, 03:18:04,VALID,1001.68,VALID,0,VALID,86.9921,VALID,0,VALID,26.1765,VALID,15,VALID,1.11523,
2011-11-16, 03:19:04,VALID,1001.69,VALID,0,VALID,86.1606,VALID,0,VALID,26.3323,VALID,27,VALID,1.34141,
2011-11-16, 03:20:04,VALID,1001.72,VALID,0,VALID,86.0233,VALID,0,VALID,26.3887,VALID,33,VALID,1.40469,
2011-11-16, 03:21:04,VALID,1001.77,VALID,0,VALID,85.9241,VALID,0,VALID,26.3887,VALID,84,VALID,0.931641,
2011-11-16, 03:22:04,VALID,1001.79,VALID,0,VALID,85.5426,VALID,0,VALID,26.3108,VALID,26,VALID,0.905078,
2011-11-16, 03:23:04,VALID,1001.79,VALID,0,VALID,85.4816,VALID,0,VALID,26.194,VALID,17,VALID,1.37266,
2011-11-16, 03:24:04,VALID,1001.8,VALID,0,VALID,85.6342,VALID,0,VALID,26.0576,VALID,13,VALID,1.54609,
2011-11-16, 03:25:04,VALID,1001.8,VALID,0,VALID,86.2216,VALID,0,VALID,25.9232,VALID,24,VALID,2.55977,
2011-11-16, 03:26:04,VALID,1001.83,VALID,0,VALID,86.8853,VALID,0,VALID,25.8239,VALID,18,VALID,2.10352,
2011-11-16, 03:27:04,VALID,1001.85,VALID,0,VALID,87.5033,VALID,0,VALID,25.746,VALID,14,VALID,2.56523,
2011-11-16, 03:28:04,VALID,1001.84,VALID,0,VALID,87.9915,VALID,0,VALID,25.7265,VALID,26,VALID,1.65117,
2011-11-16, 03:29:04,VALID,1001.86,VALID,0,VALID,88.0907,VALID,0,VALID,25.7265,VALID,33,VALID,1.23203,
2011-11-16, 03:30:04,VALID,1001.82,VALID,0,VALID,88.0983,VALID,0,VALID,25.7265,VALID,26,VALID,1.96172,
2011-11-16, 03:31:04,VALID,1001.8,VALID,0,VALID,88.1136,VALID,0.0815089,VALID,25.7071,VALID,12,VALID,2.08203,
2011-11-16, 03:32:04,VALID,1001.79,VALID,0,VALID,88.4035,VALID,0.0815089,VALID,25.7071,VALID,12,VALID,1.1707,
2011-11-16, 03:33:04,VALID,1001.78,VALID,0,VALID,88.6476,VALID,0.0815089,VALID,25.6876,VALID,27,VALID,1.13633,
2011-11-16, 03:34:04,VALID,1001.79,VALID,0,VALID,89.0367,VALID,0.0815089,VALID,25.6876,VALID,15,VALID,0.81875,
2011-11-16, 03:35:04,VALID,1001.81,VALID,0,VALID,89.0214,VALID,0,VALID,25.6486,VALID,23,VALID,1.13359,
2011-11-16, 03:36:04,VALID,1001.82,VALID,0,VALID,89.3647,VALID,0,VALID,25.6292,VALID,19,VALID,0.8625,
2011-11-16, 03:37:04,VALID,1001.84,VALID,0,VALID,89.5707,VALID,0,VALID,25.5688,VALID,24,VALID,1.17852,
2011-11-16, 03:38:04,VALID,1001.86,VALID,0,VALID,89.7843,VALID,0.0815089,VALID,25.5902,VALID,11,VALID,0.785547,
2011-11-16, 03:39:04,VALID,1001.87,VALID,0,VALID,89.8377,VALID,0,VALID,25.6311,VALID,21,VALID,1.40156,
2011-11-16, 03:40:04,VALID,1001.9,VALID,0,VALID,89.8377,VALID,0,VALID,25.5902,VALID,27,VALID,0.652734,
2011-11-16, 03:41:04,VALID,1001.9,VALID,0,VALID,89.853,VALID,0,VALID,25.5902,VALID,95,VALID,0.691797,
2011-11-16, 03:42:04,VALID,1001.91,VALID,0,VALID,89.8835,VALID,0,VALID,25.5707,VALID,10,VALID,0.417578,
2011-11-16, 03:43:04,VALID,1001.92,VALID,0,VALID,89.9369,VALID,0,VALID,25.5921,VALID,352,VALID,0.341406,
2011-11-16, 03:44:04,VALID,1001.94,VALID,0,VALID,90.0437,VALID,0,VALID,25.5727,VALID,45,VALID,0.468359,
2011-11-16, 03:45:04,VALID,1001.93,VALID,0,VALID,90.2268,VALID,0,VALID,25.5727,VALID,9,VALID,0.585938,
2011-11-16, 03:46:04,VALID,1001.94,VALID,0,VALID,90.1886,VALID,0,VALID,25.5513,VALID,64,VALID,0.540234,